Tracking 31027 objects as of 19-Jul-2025
HD Live streaming from Space Station
objects crossing your sky now

COSMOS 886 DEB

Track COSMOS 886 DEB now!
10-day predictions


NORAD ID: 9824
Int'l Code: 1976-126AL
Perigee: 496.7 km
Apogee: 1,802.5 km
Inclination: 65.8 °
Period: 108.2 minutes
Semi major axis: 7520 km
RCS: 0.0878 m2 (small)
Launch date: December 27, 1976
Source: Commonwealth of Independent States (former USSR) (CIS)
Launch site: TYURATAM MISSILE AND SPACE COMPLEX (TTMTR)

Note: This is SATELLITE DEBRIS
Your satellite tracking list
STARLINK-1243
Track 1 satellite(s)




NASA's NSSDC Master Catalog

Two Line Element Set (TLE):
1 09824U 76126AL  25199.21189144  .00000843  00000-0  21431-3 0  9990
2 09824  65.8093 130.7078 0868123 182.6962 176.9236 13.31140981310193
Source of the keplerian elements: AFSPC